Regional Weather Roundup
Issued by NWS

Home | Current Version | Previous Version | Text Only | Print | Product List | Glossary Off
Versions: 1 2 3 4 5 6 7 8 9 10 11 12 13 14 15 16 17 18 19 20 21 22 23 24 25 26 27 28 29 30 31 32 33 34 35 36 37 38 39 40 41 42 43 44 45 46 47 48 49 50

000
ASUS45 KBOU 221907
RWRCO

WEATHER ROUNDUP FOR COLORADO
NATIONAL WEATHER SERVICE DENVER/BOULDER CO
100 PM MDT SUN OCT 22 2017

NOTE: "FAIR" INDICATES FEW OR NO CLOUDS BELOW 12000 FEET WITH NO
SIGNIFICANT WEATHER AND/OR OBSTRUCTIONS TO VISIBILITY.

COZ001>005-013-030-031-222000-
...NORTHWEST COLORADO...

CITY           SKY/WX    TMP DP  RH WIND       PRES   REMARKS
CRAIG          FAIR      51  27  39 SW10      30.39F
HAYDEN         FAIR      49  26  41 NW5       30.40F
MEEKER         FAIR      54  24  31 CALM      30.40F
RABBIT EARS PA FAIR      32  27  80 W9G24     30.44F WCI  24
STEAMBOAT SPGS FAIR      46  24  42 CALM      30.40F
WALDEN         NOT AVBL
$$

COZ006>008-011-222000-
...WEST CENTRAL VALLEYS...

CITY           SKY/WX    TMP DP  RH WIND       PRES   REMARKS
GRAND JUNCTION FAIR      57  15  19 E5        30.42F
MONTROSE       FAIR      55  15  20 VRB5      30.45F
EAGLE          FAIR      53  24  32 CALM      30.44F
RIFLE          FAIR      51  18  27 NW3       30.45F
DELTA          FAIR      58  11  15 CALM      30.44F
NUCLA          FAIR      55  14  19 N8        30.48F
$$

COZ017>023-064>068-222000-
...SOUTHWEST COLORADO...

CITY           SKY/WX    TMP DP  RH WIND       PRES   REMARKS
DURANGO        FAIR      53  14  21 W7        30.43F
CORTEZ         FAIR      61  17  18 W12G17    30.42F
PAGOSA SPRINGS FAIR      51   5  15 S7        30.44F
TELLURIDE      NOT AVBL
WOLF CREEK PAS FAIR      43  21  42 W5        30.62F
$$

COZ009-010-012-014-032>034-037-058>063-222000-
...CENTRAL COLORADO...

CITY           SKY/WX    TMP DP  RH WIND       PRES   REMARKS
ASPEN          FAIR      50  26  39 N6        30.44F
BUENA VISTA    FAIR      59  19  21 N16G28    30.32F
COPPER MTN     FAIR      36  23  60 NW13G23   30.55R
BERTHOUD PASS  FAIR      27  16  63 NW44G56   30.43S WCI   8
COTTONWOOD PAS FAIR      55  16  21 W21G31    30.41F
GUNNISON       FAIR      48  20  32 W8        30.45F
KREMMLING      FAIR      59  21  23 SW17G24   30.41F
LEADVILLE      FAIR      43  20  39 NW12G22   30.46S
MONARCH PASS   FAIR      32  19  59 SW31G41   30.61R WCI  17
SALIDA         FAIR      60  19  20 SW13G22   30.39F
SUNLIGHT       FAIR      36  23  60 W6        30.57S
WILKERSON PASS FAIR      45  19  36 NW5       30.47S
$$

COZ069>075-222000-
...SAN LUIS VALLEY/SANGRE DE CRISTO MOUNTAINS...

CITY           SKY/WX    TMP DP  RH WIND       PRES   REMARKS
ALAMOSA        FAIR      51  10  19 VRB5      30.41F
DEL NORTE      FAIR      51  15  23 NE3       30.41F
LA VETA PASS   FAIR      43  19  39 S31G49    30.50F
SAGUACHE       FAIR      52  14  22 S9        30.41F
$$

COZ035-036-038>040-222000-
...NORTHERN COLORADO FRONT RANGE...

CITY           SKY/WX    TMP DP  RH WIND       PRES   REMARKS
DENVER INTL AP FAIR      67  25  20 NW14G20   30.14F
DMNS CITY PARK   N/A     66  24  20 W12G31    30.13S
AURORA         MOSUNNY   68  27  21 W16G25    30.14F
FRONT RANGE AP NOT AVBL
ERIE MUNI ARPT FAIR      62  29  28 CALM      30.19F
BOULDER MUN AP FAIR      68  25  19 NW16G30   30.13S
CENTENNIAL     FAIR      66  23  19 NW18G26   30.15F
BROOMFIELD     MOSUNNY   66  27  22 W12       30.17R
FORT COLLINS   FAIR      59  27  29 S8        30.13F
LONGMONT       FAIR      65  28  25 NE5       30.14F
$$

COZ041-046-047-076>085-087-088-222000-
...PIKES PEAK/PALMER DIVIDE AND SOUTHERN FOOTHILLS...

CITY           SKY/WX    TMP DP  RH WIND       PRES   REMARKS
COLO. SPRINGS  FAIR      63  20  19 S5        30.20F
A. F. ACADEMY  FAIR      64  21  19 SE8       30.18F
SCHRIEVER AFB  FAIR      63  17  17 W3        30.20F
CHEYENNE MTN   FAIR      60  21  22 SE6       30.17F
ELLICOTT         N/A    N/A N/A N/A W8        30.18F
FALCON         FAIR      64  20  18 W13G18    30.22F
FORT CARSON    FAIR      60  19  20 SE5       30.18F
LIMON          FAIR      65  20  17 VRB6      30.15F
MONUMENT HILL  FAIR      61  27  27 NW12G17   30.22F
CANON CITY     FAIR      64  23  20 W14       30.18S
WALSENBURG     FAIR      68  23  18 W24G31    30.21F
TRINIDAD       FAIR      64  23  21 W10       30.21F
$$

COZ042>045-048>051-090-091-222000-
...NORTHEAST COLORADO...

CITY           SKY/WX    TMP DP  RH WIND       PRES   REMARKS
GREELEY ARPT   FAIR      60  28  29 SW5       30.14F
AKRON          FAIR      64  19  17 SW10      30.12F
BURLINGTON     FAIR      64  17  16 SW16G25   30.14F
WRAY           FAIR      68  16  13 W12G20    30.11F
YUMA           NOT AVBL
STERLING       FAIR      64  23  20 SW9G18    30.09F
HOLYOKE        FAIR      70  25  18 W14G23    30.10F
FORT MORGAN    FAIR      65  19  16 SW12      30.13F
$$

COZ086-089-092>099-222000-
...SOUTHEAST COLORADO...

CITY           SKY/WX    TMP DP  RH WIND       PRES   REMARKS
PUEBLO         FAIR      67  22  18 CALM      30.14F
LA JUNTA       FAIR      66  24  20 SW7       30.15F
LAMAR          FAIR      70  18  13 SW15      30.14F
SPRINGFIELD      N/A     65  22  19 S13G22    30.18F
$$



USA.gov is the U.S. government's official web portal to all federal, state and local government web resources and services.